Regional Weather Roundup
Issued by NWS Newport/Morehead, NC

Current Version | Previous Version | Graphics & Text | Print | Product List | Glossary Off
Versions: 1 2 3 4 5 6 7 8 9 10 11 12 13 14 15 16 17 18 19 20 21 22 23 24 25 26 27 28 29 30 31 32 33 34 35 36 37 38 39 40 41 42 43 44 45 46 47 48 49 50

000
ASUS42 KMHX 251013
RWRMHX
WEATHER ROUNDUP FOR EASTERN NORTH CAROLINA
NATIONAL WEATHER SERVICE NEWPORT/MOREHEAD CITY NC
600 AM EDT MON JUL 25 2016

NOTE: "FAIR" INDICATES FEW OR NO CLOUDS BELOW 12,000 FEET
WITH NO SIGNIFICANT WEATHER AND/OR OBSTRUCTIONS TO VISIBILITY

NCZ015>017-031-032-045>047-102-103-251100-
NORTH COAST

CITY           SKY/WX    TMP DP  RH WIND       PRES   REMARKS
EDENTON        PTCLDY    81  81 100 SW5       30.05R
ELIZABETH CITY PTCLDY    77  75  93 SW6       30.03S
KITTY HAWK     MOSUNNY   80  76  89 SW8       30.03S
MANTEO           N/A     79  79  98 W9        30.05R

$$

NCZ045>047-081-094-103-104-251100-
CENTRAL COAST

CITY           SKY/WX    TMP DP  RH WIND       PRES   REMARKS
FRISCO         CLEAR     81  77  88 W9        30.05R

$$

NCZ095-097-098-100-101-251100-
SOUTHERN COAST

CITY           SKY/WX    TMP DP  RH WIND       PRES   REMARKS
BEAUFORT       CLEAR     82  76  81 SW8       30.06R
CEDAR ISLAND   NOT AVBL
JACKSONVILLE   CLEAR     77  74  90 SW5       30.06R
PINEY ISLAND   SUNNY    N/A N/A N/A SW7       30.06R
WILMINGTON     CLEAR     78  76  93 SW3       30.07R


$$

NCZ011>013-027>030-043-044-078>080-089-090>093-098-251100-
COASTAL PLAIN

CITY           SKY/WX    TMP DP  RH WIND       PRES   REMARKS
AHOSKIE        PTCLDY    75  74  98 CALM      30.04R FOG
CLINTON        CLEAR     76  76 100 CALM      30.07R FOG
ELIZABETHTOWN  PTCLDY    78  77  99 CALM      30.06S
GOLDSBORO      CLEAR     78  78 100 S3        30.04R
GREENVILLE     CLOUDY    79  77  94 SW7       30.06S FOG
HAVELOCK       CLEAR     74  73  97 SW5       30.07R FOG
KENANSVILLE    NOT AVBL
KINSTON        CLEAR     77  76  95 S5        30.07R
NEW BERN       CLEAR     77  75  93 S5        30.07R
RICHLANDS      FOG       75  73  94 CALM      30.07R VSB 3/4
ROCKY MOUNT    CLEAR     76  76 100 S3        30.04S FOG
WASHINGTON     CLEAR     76  75  95 SW7       30.05S
WHITEVILLE     PTCLDY    77  75  94 CALM      30.06R

$$

AMZ130-135-150-152-154-156-158-170-250-252-270-ANZ085-086-088-633-658-670-251100-
MARINE OBSERVATIONS

STATION/POSITION TIME  TEMP    WIND        PRES    WAVE   SWELL
                       AIR SEA DIR/SP/G            HT/PER HT/PER
                 (UTC) (F)     (DEG/KT/KT) (MB)    (FT/S) (FT/S)
CHESAPEAKE LIGHT NOT AVBL
64 E VA BEACH    0950   81 81  240/ 14/ 17 1016.3    3/ 5   2/ 8
DUCK             0900   81 60  230/ 15/ 18 1016.1
2 E DUCK         0911      64                N/A     1/ 8
OREGON INLET     0900   82 85  230/ 15/ 19 1016.4
13E OREGON INLT  1000      81                N/A     3/ 4   2/ 9
HATTERAS CG      0900   80 83  230/  6/  8 1017.0
DIAMOND BUOY     0950   84 85  230/ 16/ 17 1017.5    3/ 4   2/ 8
CAPE LOOKOUT     1000   82     250/  8/ 10 1017.8
BEAUFORT LAB     0900   83 84  230/  3/  8 1017.0
30 SE NEW RVR IN 0908   84 85  230/ 12/ 14 1017.4
30 SE NEW RVR IN 0925      85                N/A     3/ 4
27 SE WRIGHTSVLE 0908   84 84  230/ 10/ 14 1017.6
5 SE WRIGHTSVLE  0908   82 84  260/  4/  8 1018.4
225 S CAPE HAT   0950   83 84  190/ 10/ 12 1018.9    2/ 8   2/ 8
41 SE CHARLESTON 0950   85 86  210/ 10/ 12 1017.3    2/ 8   2/ 8

$$



USA.gov is the U.S. government's official web portal to all federal, state and local government web resources and services.